Flag for U.S.A. Weather past 2 weeks in Davis, California, U.S.A.

37 °F

Passing clouds.

Feels Like: 33 °F
Forecast: 34 / 57 °F
Wind: 5 mph from Northwest

Location: Sacramento International Airport

Current Time: Dec 1, 2015 at 1:54:47 AM

Latest Report: Dec 1, 2015 at 12:53 AM

Visibility: 10 mi

Pressure: 30.23 "Hg

Humidity: 73%

Dew point: 29 °F

Location of DavisLocation

Historic Weather in Davis — Graph


Davis temperature yesterday

Maximum temperature yesterday: 48 °F (at 2:53 PM)
Minimum temperature yesterday: 27 °F (at 4:53 AM)
Average temperature yesterday: 39 °F

Past Weeks' High & Low Weather Summary

High71 °F (Nov 20, 2:53 PM)100% (Nov 20, 5:53 AM)30.37 "Hg (Nov 20, 5:53 AM)
Low26 °F (Nov 29, 3:53 AM)22% (Nov 28, 2:53 PM)29.79 "Hg (Nov 24, 12:53 PM)
Average47 °F68%30.10 "Hg
* Reported Nov 16 12:53 AM — Dec 1 12:53 AM, Davis, Weather by CustomWeather, © 2015

Note: Actual official high and low records may vary slightly from our data, if they occured in-between our weather recording intervals... More about our weather records


Davis weather history for previous 24 hours

Time TempWeatherWind HumidityBarometerVisibility
12:53 AM
Tue, Dec 1
37 °FPassing clouds.5 mph73%30.23 "Hg10 mi
11:53 PM
Mon, Nov 30
42 °FPassing clouds.3 mph65%30.24 "Hg10 mi
10:53 PM41 °FOvercast.7 mph67%30.24 "Hg10 mi
9:53 PM40 °FPassing clouds.6 mph70%30.22 "Hg10 mi
8:53 PM42 °FPassing clouds.6 mph68%30.22 "Hg10 mi
7:53 PM42 °FPassing clouds.8 mph65%30.22 "Hg10 mi
6:53 PM43 °FPassing clouds.7 mph62%30.21 "Hg10 mi
5:53 PM45 °FPartly cloudy.7 mph63%30.20 "Hg10 mi
4:53 PM47 °FOvercast.7 mph59%30.21 "Hg10 mi
3:53 PM48 °FBroken clouds.5 mph56%30.20 "Hg10 mi
2:53 PM48 °FMostly cloudy.8 mph54%30.21 "Hg10 mi
1:53 PM46 °FOvercast.3 mph56%30.21 "Hg10 mi
12:53 PM45 °FLight rain. Mostly cloudy.6 mph60%30.22 "Hg10 mi
11:53 AM45 °FLight rain. Mostly cloudy.9 mph56%30.24 "Hg10 mi
10:53 AM46 °FOvercast.7 mph51%30.25 "Hg10 mi
9:53 AM42 °FPartly sunny.6 mph62%30.26 "Hg10 mi
8:53 AM37 °FPartly sunny.8 mph73%30.26 "Hg10 mi
7:53 AM33 °FBroken clouds.No wind78%30.24 "Hg10 mi
6:53 AM29 °FPassing clouds.No wind82%30.24 "Hg10 mi
5:53 AM28 °FClear.5 mph85%30.24 "Hg10 mi
4:53 AM27 °FClear.3 mph85%30.22 "Hg10 mi
3:53 AM29 °FPassing clouds.6 mph85%30.22 "Hg10 mi
2:53 AM29 °FPassing clouds.3 mph85%30.23 "Hg10 mi
1:53 AM31 °FPassing clouds.No wind82%30.24 "Hg10 mi
Weather by CustomWeather, © 2015

See weather overviewHow to use our weather pages